Location: Hains Lake
(37.8540°N, 99.8578°W)
Time: 15:57:42
(UTC+00:00)

METEOR-M - Pass Details

Date: 11 December 2019
Orbit: 817 x 819 km, 98.4° (Epoch: 29 January)

Event Time Altitude Azimuth Distance (km) Brightness Sun altitude
Rises 12:05:51 0° 11° (NNE) 3,355 7.3 -18.9°
Reaches altitude 10° 12:08:12 10° 11° (N) 2,419 6.5 -18.5°
Maximum altitude 12:13:34 82° 284° (WNW) 831 4.0 -17.5°
Drops below altitude 10° 12:18:54 10° 198° (SSW) 2,404 6.6 -16.4°
Sets 12:21:14 0° 197° (SSW) 3,333 7.3 -16.0°
